THAICOM 6

Last updated on Thu Aug 13 2026 00:02:59 GMT+0000 (Coordinated Universal Time)

1 39500U 14002A 26224.62127959 -.00000139 00000+0 00000+0 0 9993 2 39500 0.0353 121.0498 0004188 15.7142 126.4651 1.00272695 46025
UTC large
Height (km)
Speed (km/s)
/
Latitude / Longitude
Inclination (degrees)
Orbital Period (minutes)
Azimuth
Elevation
Range (km)
Doppler Factor

Next 0 passes for location: London (51.5072 / 0.1276)

No passes found over London.
THAICOM 6